Location: Newark
(48.9000°N, 0.7000°E)
Time: 20:30:34
(UTC+00:00)

ISS - Pass Details

Date: 05 October 2020
Orbit: 418 x 420 km, 51.6° (Epoch: 20 October)

Event Time Altitude Azimuth Distance (km) Brightness Sun altitude
Rises 19:07:25 0° 285° (WNW) 2,368 1.8 -17.3°
Reaches altitude 10° 19:09:56 10° 267° (W) 1,501 0.2 -17.7°
Maximum altitude 19:12:21 18° 221° (SW) 1,088 -1.4 -18.1°
Enters shadow 19:14:10 13° 183° (S) 1,337 -1.3 -18.4°
